Weather History for Thurmont, MD

Change the Weather History Date:

Tuesday, May 28, 2013

  Actual Average (KHGR) Record (KHGR)
Temperature  
Mean Temperature 62 °F -  
Max Temperature 70 °F 72 °F 89 °F (2012)
Min Temperature 54 °F 53 °F 46 °F (1997)
Degree Days  
Heating Degree Days 3    
Growing Degree Days 12 (Base 50)    
Moisture  
Dew Point 53 °F    
Average Humidity 74    
Maximum Humidity 93    
Minimum Humidity 49    
Precipitation  
Precipitation 0.06 in - - ()
Sea Level Pressure  
Sea Level Pressure 30.17 in    
Wind  
Wind Speed 6 mph (South)    
Max Wind Speed 9 mph    
Max Gust Speed -    
Visibility 9 miles    
Events Rain    
Averages and records for this station are not official NWS values.
T = Trace of Precipitation, MM = Missing Value Source: NWS Daily Summary

Daily Weather History Graph

Daily Weather History Graph

Search for Another Location

Airport:

Trip Planner

Search our weather history database for the weather conditions in past years. The results will help you decide how hot, cold, wet, or windy it might be!

Date:

Astronomy

May. 28, 2013 Rise Set
Actual Time 5:45 AM EDT 8:28 PM EDT
Civil Twilight 5:14 AM EDT 9:00 PM EDT
Nautical Twilight 4:34 AM EDT 9:40 PM EDT
Astronomical Twilight 3:50 AM EDT 10:25 PM EDT
Moon 11:51 PM EDT (5/28) 9:31 AM EDT (5/28)
Length of Visible Light 15h 46m
Length of Day
14h 42m
Waning Gibbous, 83% of the Moon is Illuminated
May 28
Waning Gibbous
May 31
Last Quarter
Jun 8
New
Jun 16
First Quarter
Jun 23
Full

Hourly Weather History & Observations

Time (EDT) Temp. Dew Point Humidity Pressure Visibility Wind Dir Wind Speed Gust Speed Precip Events Conditions
12:54 AM 57.9 °F 39.0 °F 49% 30.22 in 10.0 mi SSW 5.8 mph - N/A   Partly Cloudy
1:54 AM 57.9 °F 39.9 °F 51% 30.21 in 10.0 mi South 6.9 mph - N/A   Mostly Cloudy
2:54 AM 57.0 °F 41.0 °F 55% 30.20 in 10.0 mi South 8.1 mph - N/A   Scattered Clouds
3:54 AM 57.0 °F 39.9 °F 53% 30.18 in 10.0 mi South 6.9 mph - N/A   Partly Cloudy
4:54 AM 55.0 °F 42.1 °F 62% 30.19 in 10.0 mi South 6.9 mph - 0.00 in Rain Light Rain
5:54 AM 55.0 °F 43.0 °F 64% 30.19 in 10.0 mi South 8.1 mph - 0.00 in   Overcast
6:54 AM 54.0 °F 46.9 °F 77% 30.20 in 10.0 mi South 8.1 mph - 0.00 in   Overcast
7:54 AM 55.0 °F 50.0 °F 83% 30.20 in 10.0 mi SSE 6.9 mph - 0.01 in Rain Light Rain
8:54 AM 55.9 °F 50.0 °F 80% 30.20 in 10.0 mi South 5.8 mph - 0.00 in   Overcast
9:54 AM 55.9 °F 51.1 °F 84% 30.20 in 7.0 mi Calm Calm - 0.01 in Rain Light Rain
10:54 AM 54.0 °F 52.0 °F 93% 30.19 in 6.0 mi South 6.9 mph - 0.04 in   Overcast
11:54 AM 57.9 °F 54.0 °F 87% 30.18 in 10.0 mi WSW 5.8 mph - N/A   Scattered Clouds
12:54 PM 62.1 °F 55.9 °F 80% 30.17 in 10.0 mi Calm Calm - N/A   Mostly Cloudy
1:54 PM 66.0 °F 57.0 °F 73% 30.17 in 10.0 mi SSW 3.5 mph - N/A   Scattered Clouds
2:54 PM 68.0 °F 59.0 °F 73% 30.15 in 10.0 mi South 4.6 mph - N/A   Partly Cloudy
3:54 PM 69.1 °F 59.0 °F 70% 30.15 in 10.0 mi Variable 4.6 mph - N/A   Clear
4:54 PM 70.0 °F 60.1 °F 71% 30.14 in 10.0 mi South 9.2 mph - N/A   Clear
5:54 PM 70.0 °F 60.1 °F 71% 30.14 in 10.0 mi South 6.9 mph - N/A   Clear
6:54 PM 69.1 °F 59.0 °F 70% 30.13 in 10.0 mi Calm Calm - N/A   Mostly Cloudy
7:54 PM 66.9 °F 60.1 °F 79% 30.13 in 9.0 mi SSE 5.8 mph - 0.00 in   Mostly Cloudy
8:54 PM 66.0 °F 60.1 °F 81% 30.12 in 9.0 mi SSE 8.1 mph - N/A   Clear
9:54 PM 64.9 °F 61.0 °F 87% 30.13 in 7.0 mi South 5.8 mph - N/A   Clear
10:54 PM 64.9 °F 61.0 °F 87% 30.14 in 8.0 mi South 8.1 mph - N/A   Clear
11:54 PM 64.0 °F 61.0 °F 90% 30.13 in 8.0 mi South 5.8 mph - N/A   Clear